Regional Weather Roundup
Issued by NWS

Home | Current Version | Previous Version | Graphics & Text | Print | Product List | Glossary On
Versions: 1 2 3 4 5 6 7 8 9 10 11 12 13 14 15 16 17 18 19 20 21 22 23 24 25 26 27 28 29 30 31 32 33 34 35 36 37 38 39 40 41 42 43 44 45 46 47 48 49 50
000
ASUS44 KMEG 011810
RWRTN
TENNESSEE HOURLY STATE WEATHER ROUNDUP
NATIONAL WEATHER SERVICE MEMPHIS TN
100 PM CDT TUE SEP 01 2015

TNZ002-004-019-021-049-052-054-088>092-011900-
WEST TENNESSEE

CITY           SKY/WX    TMP DP  RH WIND       PRES   REMARKS
MEMPHIS INTL   PTSUNNY   89  68  49 S3        30.11S HX  93
NWS MEMPHIS      N/A     89 N/A N/A MISG        N/A
JACKSON        PTSUNNY   85  68  56 CALM      30.12F
DYERSBURG      MOSUNNY   84  70  61 CALM      30.12F
UNION CITY     SUNNY     88  70  55 VRB6      30.10F HX  92
PARIS          SUNNY     86  66  51 E7        30.13F
LEXINGTON      MOSUNNY   86  66  51 N3        30.11F
$$

TNZ008-025-027-028-033-062-065-066-011900-
NORTH MIDDLE TENNESSEE

CITY           SKY/WX    TMP DP  RH WIND       PRES   REMARKS
NASHVILLE      PTSUNNY   88  64  44 CALM      30.12F
CLARKSVILLE    MOSUNNY   88  63  43 S5        30.11F
SMYRNA         MOSUNNY   93  69  45 CALM      30.13F HX  98
COOKEVILLE     PTSUNNY   88  70  55 NW3       30.14S HX  92
CROSSVILLE     MOSUNNY   83  62  49 CALM      30.19S
$$

TNZ061-075-076-078-094-096-097-011900-
SOUTH MIDDLE TENNESSEE

CITY           SKY/WX    TMP DP  RH WIND       PRES   REMARKS
FAYETTEVILLE   MOSUNNY   82  64  54 CALM      30.13F
TULLAHOMA      PTSUNNY   84  64  51 NW3       30.15F
WINCHESTER     MOSUNNY   84  66  54 VRB3      30.13F
MCMINNVILLE    SUNNY     84  72  65 N5        30.14F
COLUMBIA       SUNNY     88  70  55 SE6       30.12S HX  92
SHELBYVILLE    MOSUNNY   88  70  55 SW3       30.14F HX  92
$$

TNZ017-018-042-046-047-011900-
NORTHEAST TENNESSEE

CITY           SKY/WX    TMP DP  RH WIND       PRES   REMARKS
TRI CITIES     MOSUNNY   86  62  44 CALM      30.15F
ELIZABETHTON   PTCLDY    84  63  48 VRB5      30.15F
$$

TNZ012-013-036-069-073-074-011900-
CENTRAL EAST TENNESSEE

CITY           SKY/WX    TMP DP  RH WIND       PRES   REMARKS
KNOXVILLE      PTSUNNY   87  71  58 E7        30.12F HX  93
OAK RIDGE      FAIR      87  65  47 E5        30.14F
GATLINBURG       N/A     88  61  40 VRB7      30.12F
MORRISTOWN     CLEAR     84  64  51 N5        30.16S
$$

TNZ083-085-099-011900-
SOUTHEAST TENNESSEE

CITY           SKY/WX    TMP DP  RH WIND       PRES   REMARKS
CHATTANOOGA    PTSUNNY   86  66  51 VRB5      30.12F
$$

SKY/WX REPORTED AS FAIR MEANS FEW OR NO CLOUDS BELOW
12 THOUSAND FEET.




USA.gov is the U.S. government's official web portal to all federal, state and local government web resources and services.